Weather History for Newport, VT

Change the Weather History Date:

Tuesday, June 10, 2014

  Actual Average Record
Temperature  
Mean Temperature 60 °F -  
Max Temperature 69 °F 73 °F 90 °F (1974)
Min Temperature 52 °F 50 °F 36 °F (1958)
Degree Days  
Heating Degree Days 4    
Growing Degree Days 10 (Base 50)    
Moisture  
Dew Point 53 °F    
Average Humidity 76    
Maximum Humidity 93    
Minimum Humidity 59    
Precipitation  
Precipitation 0.00 in - - ()
Sea Level Pressure  
Sea Level Pressure 30.03 in    
Wind  
Wind Speed 5 mph (North)    
Max Wind Speed 13 mph    
Max Gust Speed 16 mph    
Visibility 10 miles    
Events Rain    
Averages and records for this station are not official NWS values.
T = Trace of Precipitation, MM = Missing Value Source: NWS Daily Summary

Daily Weather History Graph

Daily Weather History Graph

Search for Another Location

Airport:

Trip Planner

Search our weather history database for the weather conditions in past years. The results will help you decide how hot, cold, wet, or windy it might be!

Date:

Astronomy

Jun. 10, 2014 Rise Set
Actual Time 5:02 AM EDT 8:34 PM EDT
Civil Twilight 4:25 AM EDT 9:11 PM EDT
Nautical Twilight 3:36 AM EDT 10:00 PM EDT
Astronomical Twilight 2:33 AM EDT 11:04 PM EDT
Moon 5:50 PM EDT (6/10) 3:13 AM EDT (6/10)
Length of Visible Light 16h 45m
Length of Day
15h 31m
Waxing Gibbous, 92% of the Moon is Illuminated
Jun 10
Waxing Gibbous
Jun 13
Full
Jun 19
Last Quarter
Jun 27
New
Jul 5
First Quarter

Hourly Weather History & Observations

Time (EDT) Temp. Dew Point Humidity Pressure Visibility Wind Dir Wind Speed Gust Speed Precip Events Conditions
12:15 AM 64.8 °F 51.8 °F 63% 29.99 in 10.0 mi NNE 5.8 mph - N/A   Overcast
12:35 AM 63.7 °F 51.8 °F 65% 29.99 in 10.0 mi North 6.9 mph - N/A   Mostly Cloudy
12:55 AM 63.7 °F 50.7 °F 63% 29.99 in 10.0 mi North 6.9 mph - N/A   Scattered Clouds
1:15 AM 64.0 °F 50.9 °F 62% 29.98 in 10.0 mi North 6.9 mph - N/A   Overcast
1:35 AM 64.2 °F 50.2 °F 60% 29.97 in 10.0 mi North 6.9 mph - N/A   Overcast
1:55 AM 62.8 °F 50.4 °F 64% 29.97 in 10.0 mi NNW 4.6 mph - N/A   Overcast
2:15 AM 62.8 °F 49.5 °F 62% 29.97 in 10.0 mi North 4.6 mph - N/A   Mostly Cloudy
2:35 AM 62.6 °F 50.2 °F 64% 29.97 in 10.0 mi North 5.8 mph - N/A   Scattered Clouds
2:55 AM 61.7 °F 50.4 °F 66% 29.97 in 10.0 mi North 4.6 mph - N/A   Scattered Clouds
3:15 AM 61.9 °F 50.4 °F 66% 29.96 in 10.0 mi NNW 3.5 mph - N/A   Mostly Cloudy
3:35 AM 61.7 °F 50.2 °F 66% 29.96 in 10.0 mi Calm Calm - N/A   Overcast
3:55 AM 61.7 °F 50.2 °F 66% 29.95 in 10.0 mi Calm Calm - N/A   Overcast
4:15 AM 61.7 °F 50.2 °F 66% 29.95 in 10.0 mi Calm Calm - N/A   Overcast
4:35 AM 59.7 °F 50.4 °F 71% 29.95 in 10.0 mi Calm Calm - N/A   Overcast
5:15 AM 60.1 °F 50.4 °F 70% 29.96 in 10.0 mi NNW 4.6 mph - N/A   Overcast
5:35 AM 59.5 °F 53.4 °F 80% 29.96 in 10.0 mi Calm Calm - N/A   Overcast
5:55 AM 59.7 °F 51.4 °F 74% 29.97 in 10.0 mi Calm Calm - N/A   Overcast
6:15 AM 60.4 °F 51.1 °F 71% 29.98 in 10.0 mi Calm Calm - N/A   Overcast
6:35 AM 60.6 °F 52.9 °F 76% 29.99 in 10.0 mi Calm Calm - N/A   Overcast
6:55 AM 61.0 °F 51.4 °F 71% 29.99 in 10.0 mi NNW 4.6 mph - N/A   Overcast
7:15 AM 61.2 °F 53.1 °F 75% 30.00 in 10.0 mi NNW 4.6 mph - N/A   Overcast
7:35 AM 60.6 °F 52.2 °F 74% 30.00 in 10.0 mi North 9.2 mph - N/A   Overcast
7:55 AM 59.5 °F 52.2 °F 77% 30.01 in 10.0 mi North 9.2 mph - N/A Rain Rain
8:15 AM 58.1 °F 53.4 °F 84% 30.02 in 10.0 mi North 9.2 mph - N/A Rain Rain
8:35 AM 57.6 °F 54.1 °F 88% 30.02 in 10.0 mi North 9.2 mph - N/A Rain Light Rain
8:55 AM 57.4 °F 54.5 °F 90% 30.03 in 5.0 mi NNW 5.8 mph - N/A Rain Heavy Rain
9:15 AM 56.8 °F 54.3 °F 91% 30.03 in 7.0 mi NNW 8.1 mph - N/A Rain Rain
9:35 AM 56.7 °F 54.5 °F 92% 30.04 in 7.0 mi NNW 6.9 mph - N/A Rain Light Rain
9:55 AM 56.8 °F 54.7 °F 92% 30.04 in 10.0 mi North 6.9 mph - N/A Rain Rain
10:15 AM 57.6 °F 55.6 °F 93% 30.04 in 7.0 mi North 8.1 mph - N/A   Drizzle
10:35 AM 56.8 °F 54.7 °F 92% 30.05 in 10.0 mi North 9.2 mph - N/A   Light Drizzle
10:55 AM 57.6 °F 55.4 °F 92% 30.05 in 10.0 mi NNW 8.1 mph - N/A   Overcast
11:15 AM 57.6 °F 55.0 °F 91% 30.05 in 10.0 mi North 8.1 mph - N/A   Overcast
11:35 AM 57.6 °F 54.9 °F 91% 30.05 in 4.0 mi NNE 8.1 mph - N/A Rain Heavy Rain
11:55 AM 57.9 °F 55.2 °F 91% 30.05 in 10.0 mi North 5.8 mph - N/A   Overcast
12:15 PM 59.0 °F 55.8 °F 89% 30.05 in 10.0 mi North 6.9 mph - N/A   Overcast
12:35 PM 59.5 °F 55.6 °F 87% 30.04 in 10.0 mi North 5.8 mph - N/A   Overcast
12:55 PM 60.8 °F 55.9 °F 84% 30.04 in 10.0 mi North 4.6 mph - N/A   Overcast
1:15 PM 61.5 °F 55.8 °F 81% 30.04 in 10.0 mi North 8.1 mph - N/A   Overcast
2:15 PM 64.6 °F 56.1 °F 74% 30.04 in 10.0 mi North 6.9 mph - N/A   Overcast
2:35 PM 65.3 °F 56.3 °F 73% 30.04 in 10.0 mi North 4.6 mph - N/A   Mostly Cloudy
2:55 PM 66.0 °F 55.6 °F 69% 30.04 in 10.0 mi NNW 3.5 mph - N/A   Mostly Cloudy
3:35 PM 67.8 °F 56.3 °F 67% 30.04 in 10.0 mi NNW 5.8 mph - N/A   Mostly Cloudy
4:15 PM 68.7 °F 56.1 °F 64% 30.05 in 10.0 mi North 10.4 mph 16.1 mph N/A   Scattered Clouds
5:15 PM 69.3 °F 54.7 °F 60% 30.05 in 10.0 mi North 12.7 mph - N/A   Clear
5:55 PM 68.2 °F 53.4 °F 59% 30.06 in 10.0 mi North 10.4 mph - N/A   Clear
6:15 PM 67.3 °F 53.6 °F 61% 30.06 in 10.0 mi North 8.1 mph - N/A   Clear
6:35 PM 67.1 °F 53.4 °F 61% 30.08 in 10.0 mi NNE 8.1 mph - N/A   Clear
7:15 PM 65.1 °F 54.0 °F 67% 30.08 in 10.0 mi NNE 6.9 mph - N/A   Clear
7:55 PM 63.1 °F 54.0 °F 72% 30.09 in 10.0 mi NE 3.5 mph - N/A   Clear
8:15 PM 63.5 °F 53.6 °F 70% 30.09 in 10.0 mi NE 3.5 mph - N/A   Clear
8:35 PM 62.4 °F 54.0 °F 74% 30.10 in 10.0 mi Calm Calm - N/A   Clear
8:55 PM 61.2 °F 54.0 °F 77% 30.11 in 10.0 mi Calm Calm - N/A   Clear
9:15 PM 57.9 °F 53.1 °F 84% 30.12 in 10.0 mi Calm Calm - N/A   Clear
9:55 PM 57.2 °F 53.6 °F 88% 30.12 in 10.0 mi Calm Calm - N/A   Clear
10:15 PM 55.8 °F 52.9 °F 90% 30.13 in 10.0 mi Calm Calm - N/A   Clear
11:15 PM 55.6 °F 53.4 °F 92% 30.13 in 10.0 mi Calm Calm - N/A   Clear
11:35 PM 52.5 °F 50.0 °F 91% 30.13 in 5.0 mi Calm Calm - N/A   Clear
11:55 PM 53.6 °F 50.5 °F 89% 30.13 in 10.0 mi Calm Calm - N/A   Clear